George, South Africa

2:20 PM SAST on September 27, 2016 (GMT +0200)
George

Weather History for 68828 - November, 2012

Change the Weather History Date:

Sunday, November 4, 2012

  Actual Average Record
Temperature  
Mean Temperature 62 °F -  
Max Temperature 69 °F - - ()
Min Temperature 54 °F - - ()
Degree Days  
Heating Degree Days 4    
Growing Degree Days 12 (Base 50)    
Moisture  
Dew Point 56 °F    
Average Humidity 83    
Maximum Humidity 94    
Minimum Humidity 63    
Precipitation  
Precipitation 0.00 in - - ()
Sea Level Pressure  
Sea Level Pressure 29.93 in    
Wind  
Wind Speed 7 mph ()    
Max Wind Speed 18 mph    
Max Gust Speed -    
Visibility 6.5 miles    
Events      
T = Trace of Precipitation, MM = Missing Value Source: Averaged Metar Reports

Daily Weather History Graph

Daily Weather History Graph

Search for Another Location

Airport or City:

Trip Planner

Search our weather history database for the weather conditions in past years. The results will help you decide how hot, cold, wet, or windy it might be!

Date:

Astronomy

Nov. 04, 2012 Rise Set
Actual Time 5:26 AM SAST 7:01 PM SAST
Civil Twilight 4:59 AM SAST 7:28 PM SAST
Nautical Twilight 4:27 AM SAST 8:00 PM SAST
Astronomical Twilight 3:54 AM SAST 8:34 PM SAST
Moon 11:42 PM SAST (11/4) 9:29 AM SAST (11/4)
Length of Visible Light 14h 28m
Length of Day
13h 35m
Waning Gibbous, 74% of the Moon is Illuminated
Nov 4
Waning Gibbous
Nov 7
Last Quarter
Nov 14
New
Nov 20
First Quarter
Nov 28
Full

Hourly Weather History & Observations

Time (SAST) Temp. Dew Point Humidity Pressure Visibility Wind Dir Wind Speed Gust Speed Precip Events Conditions
12:00 AM 57.2 °F 53.6 °F 88% 29.89 in - West 6.9 mph - N/A   Clear
1:00 AM 55.4 °F 53.6 °F 94% 29.89 in - West 6.9 mph - N/A   Clear
2:00 AM 56 °F 53 °F 86% 29.89 in 6 mi WNW 8.1 mph - -  
2:00 AM 55.4 °F 53.6 °F 94% 29.89 in - WNW 8.1 mph - N/A   Clear
3:00 AM 55.4 °F 51.8 °F 88% 29.89 in - WNW 4.6 mph - N/A   Clear
4:00 AM 55.4 °F 53.6 °F 94% 29.89 in 3.7 mi West 6.9 mph - N/A   Mostly Cloudy
5:00 AM 55 °F 53 °F 92% 29.90 in 1 mi SW 5.8 mph - -   Mist
5:00 AM 55.4 °F 53.6 °F 94% 29.89 in 0.6 mi SW 5.8 mph - N/A   Mostly Cloudy
6:00 AM 55.4 °F 53.6 °F 94% 29.92 in 0.9 mi NW 4.6 mph - N/A   Mostly Cloudy
7:00 AM 57.2 °F 55.4 °F 94% 29.92 in 4.3 mi West 5.8 mph - N/A   Mostly Cloudy
8:00 AM 58 °F 55 °F 86% 29.96 in 12 mi West 5.8 mph - -   Partly Cloudy
8:00 AM 57.2 °F 55.4 °F 94% 29.92 in 6.2 mi West 5.8 mph - N/A   Mostly Cloudy
9:00 AM 60.8 °F 57.2 °F 88% 29.92 in 6.2 mi WSW 10.4 mph - N/A   Mostly Cloudy
10:00 AM 64.4 °F 57.2 °F 77% 29.92 in 6.2 mi West 10.4 mph - N/A   Mostly Cloudy
11:00 AM 68 °F 58 °F 63% 29.95 in 12 mi West 10.4 mph - -   Partly Cloudy
11:00 AM 68.0 °F 57.2 °F 68% 29.92 in 6.2 mi West 10.4 mph - N/A   Scattered Clouds
12:00 PM 69.8 °F 57.2 °F 64% 29.92 in 6.2 mi SW 12.7 mph - N/A   Partly Cloudy
1:00 PM 68.0 °F 57.2 °F 68% 29.95 in 6.2 mi SSW 15.0 mph - N/A   Partly Cloudy
2:00 PM 66 °F 57 °F 65% 29.94 in 12 mi SSW 18.4 mph - -   Scattered Clouds
2:00 PM 66.2 °F 57.2 °F 73% 29.95 in 6.2 mi SSW 18.4 mph - N/A   Partly Cloudy
3:00 PM 64.4 °F 55.4 °F 73% 29.95 in 6.2 mi SSW 13.8 mph - N/A   Partly Cloudy
4:00 PM 64.4 °F 57.2 °F 77% 29.95 in 6.2 mi SSW 12.7 mph - N/A   Scattered Clouds
5:00 PM 62 °F 56 °F 75% 29.96 in 12 mi SSW 10.4 mph - -   Mostly Cloudy
5:00 PM 62.6 °F 57.2 °F 82% 29.95 in 6.2 mi SSW 9.2 mph - N/A   Mostly Cloudy
6:00 PM 60.8 °F 57.2 °F 88% 29.95 in 6.2 mi SW 9.2 mph - N/A   Mostly Cloudy
7:00 PM 60.8 °F 57.2 °F 88% 29.95 in 6.2 mi SW 3.5 mph - N/A   Mostly Cloudy
8:00 PM 60 °F 56 °F 83% 29.97 in 12 mi WSW 4.6 mph - -   Mostly Cloudy
8:00 PM 60.8 °F 57.2 °F 88% 29.95 in 6.2 mi WSW 4.6 mph - N/A   Mostly Cloudy
9:00 PM 60.8 °F 57.2 °F 88% 30.01 in 6.2 mi SW 3.5 mph - N/A   Overcast
10:00 PM 60.8 °F 57.2 °F 88% 29.98 in 6.2 mi Calm Calm - N/A   Overcast
11:00 PM 59.0 °F 57.2 °F 94% 29.98 in 5.0 mi SSE 3.5 mph - N/A   Overcast